[[{"header":{"parameterUnit":"m.s-1","parameterCategory":1,"la1":30.2992,"la2":30.254,"lo1":-89.0895,"lo2":-89.0443,"dy":0.0025,"dx":0.0025,"nx":19,"ny":19,"refTime":"2026-05-05T21:00:00:Z","depth":0,"parameterNumber":2,"parameterNumberName":"U-component_of_WINDS"},"data":[0,0,0,-0.4956,-0.4957,-0.5012,-0.5013,-0.5081,-0.5082,0,0,0,0,0,0,0,0,0,0,0,-0.4937,-0.4937,-0.4956,-0.4957,-0.5012,-0.5013,-0.5081,-0.5082,0,0,0,0,0,0,0,0,0,0,0,-0.4936,-0.4937,-0.4937,-0.4957,-0.5012,-0.5013,-0.5081,-0.504,0,0,0,0,0,0,0,0,0,0,-0.4987,-0.4966,-0.4937,-0.4937,-0.4957,-0.5012,-0.5013,-0.5038,-0.5043,-0.5054,0,-0.5063,0,-0.5073,-0.5086,-0.5086,0,0,0,-0.4959,-0.4963,-0.498,-0.4937,-0.4958,-0.5012,-0.4988,-0.5041,-0.5046,-0.506,-0.5064,-0.5067,-0.5075,-0.5086,-0.5087,-0.5145,-0.5145,0,0,-0.4956,-0.4946,-0.4976,-0.4983,-0.4973,-0.4986,-0.499,-0.5044,-0.5048,-0.5065,-0.5069,-0.5076,-0.5087,-0.5087,-0.5144,-0.5145,0,0,0,-0.4946,-0.4943,-0.4959,-0.498,-0.499,-0.4988,-0.4992,-0.5046,-0.5052,-0.5069,-0.5077,-0.5087,-0.5088,-0.5144,-0.5145,-0.5141,0,0,0,-0.4944,-0.4937,-0.4958,-0.4952,-0.4989,-0.5018,-0.4992,-0.5048,-0.5054,-0.5076,-0.5087,-0.5089,-0.5144,-0.5144,-0.5141,-0.5142,0,0,0,-0.4934,-0.4936,-0.4943,-0.4951,-0.4975,-0.5018,-0.5027,-0.5049,-0.5058,-0.5086,-0.5089,-0.5144,-0.5144,-0.5141,-0.5141,-0.5153,0,0,0,-0.492,-0.4941,-0.4943,-0.4968,-0.4974,-0.5015,-0.5027,-0.5058,-0.5082,-0.5087,-0.5144,-0.5145,-0.5141,-0.5141,-0.5153,-0.5161,-0.5163,0,0,-0.494,-0.4943,-0.4959,-0.4962,-0.5,-0.5008,-0.5046,-0.5078,-0.5091,-0.5126,-0.5128,-0.5141,-0.5141,-0.5153,-0.5182,-0.5183,0,0,0,-0.4961,-0.4972,-0.4985,-0.5006,-0.503,-0.5051,-0.5078,-0.509,-0.512,-0.5106,-0.515,-0.515,-0.5157,-0.5162,-0.5163,-0.517,-0.5146,-0.5146,-0.5146,-0.4974,-0.4988,-0.5015,-0.5036,-0.5057,-0.5084,-0.5103,-0.5123,-0.5133,-0.5143,-0.5153,-0.5169,-0.5173,-0.5174,-0.5181,-0.5159,-0.5159,-0.5159,-0.5159,-0.5004,-0.5021,-0.5033,-0.5062,-0.5078,-0.5104,-0.5132,-0.5137,-0.5164,-0.5162,-0.517,-0.5166,-0.5176,-0.5183,-0.5159,-0.5159,-0.5159,-0.5159,-0.5159,-0.5013,-0.5024,-0.5037,-0.5069,-0.5092,-0.5113,-0.5138,-0.5152,-0.5165,-0.5172,-0.5184,-0.5184,-0.5186,-0.5177,-0.5177,-0.5177,-0.5177,-0.5177,-0.5177,-0.5017,-0.5032,-0.5051,-0.5078,-0.5093,-0.5114,-0.5142,-0.5158,-0.5179,-0.5187,-0.5187,-0.5195,-0.5174,-0.5168,-0.5178,-0.5178,-0.5178,-0.5178,-0.5178,-0.5041,-0.5037,-0.5066,-0.5081,-0.5113,-0.5135,-0.5152,-0.5183,-0.5198,-0.521,-0.5217,-0.5199,-0.5203,-0.5202,-0.5197,-0.5213,-0.5213,-0.5213,-0.5213,-0.5048,-0.5051,-0.5083,-0.5106,-0.513,-0.5148,-0.518,-0.5202,-0.5225,-0.5235,-0.5235,-0.523,-0.5228,-0.5233,-0.5231,-0.5227,-0.5251,-0.5251,-0.5251,-0.5063,-0.5069,-0.5093,-0.5114,-0.514,-0.5163,-0.5193,-0.522,-0.5245,-0.5253,-0.5243,-0.5242,-0.5234,-0.523,-0.5237,-0.5234,-0.5226,0,0]},{"header":{"parameterUnit":"m.s-1","parameterCategory":1,"la1":30.2992,"la2":30.254,"lo1":-89.0895,"lo2":-89.0443,"dy":0.0025,"dx":0.0025,"nx":19,"ny":19,"refTime":"2026-05-05T21:00:00:Z","depth":0,"parameterNumber":3,"parameterNumberName":"V-component_of_WINDS"},"data":[0,0,0,3.9857,3.9857,3.9867,3.9867,3.9879,3.9879,0,0,0,0,0,0,0,0,0,0,0,3.9854,3.9855,3.9857,3.9857,3.9867,3.9867,3.9879,3.9879,0,0,0,0,0,0,0,0,0,0,0,3.9854,3.9855,3.9855,3.9857,3.9867,3.9867,3.9879,3.9871,0,0,0,0,0,0,0,0,0,0,3.9861,3.986,3.9855,3.9855,3.9857,3.9867,3.9867,3.9871,3.9872,3.9875,0,3.9878,0,3.9879,3.988,3.988,0,0,0,3.9856,3.986,3.9862,3.9855,3.9857,3.9867,3.9862,3.9871,3.9872,3.9876,3.9879,3.9879,3.9879,3.988,3.988,3.9906,3.9907,0,0,3.9855,3.9856,3.9862,3.9863,3.9863,3.9862,3.9862,3.9872,3.9874,3.9879,3.9879,3.988,3.988,3.988,3.9906,3.9906,0,0,0,3.9854,3.9856,3.9858,3.9862,3.9864,3.9862,3.9863,3.9874,3.9875,3.9879,3.988,3.988,3.988,3.9906,3.9906,3.9918,0,0,0,3.9854,3.9855,3.9858,3.9858,3.9864,3.9869,3.9865,3.9874,3.9875,3.988,3.988,3.988,3.9906,3.9906,3.9917,3.9923,0,0,0,3.9853,3.9855,3.9857,3.9858,3.9863,3.9869,3.9871,3.9874,3.9875,3.988,3.988,3.9906,3.9906,3.9917,3.9922,3.9932,0,0,0,3.9852,3.9865,3.9857,3.9871,3.9863,3.9877,3.987,3.988,3.9886,3.988,3.9906,3.9906,3.9916,3.9921,3.9931,3.9941,3.9945,0,0,3.9868,3.9867,3.9875,3.9869,3.9885,3.9875,3.9893,3.9895,3.9893,3.9902,3.9902,3.9918,3.9922,3.9932,3.9967,3.997,0,0,0,3.988,3.9886,3.989,3.9897,3.9902,3.9906,3.9906,3.9908,3.9916,3.9899,3.9923,3.9926,3.9931,3.9936,3.9939,3.9944,3.9908,3.9908,3.9908,3.9902,3.9903,3.9917,3.992,3.9926,3.9929,3.9934,3.9936,3.9931,3.9937,3.994,3.9961,3.9967,3.9969,3.9975,3.9944,3.9944,3.9944,3.9944,3.9926,3.9935,3.9934,3.9947,3.9947,3.9958,3.9961,3.9958,3.9968,3.9958,3.9963,3.9954,3.9972,3.9978,3.9945,3.9945,3.9945,3.9945,3.9945,3.9941,3.9946,3.995,3.9962,3.9972,3.9973,3.9984,3.9983,3.9981,3.9986,3.999,3.999,3.999,3.9988,3.9988,3.9988,3.9988,3.9988,3.9988,3.9955,3.9959,3.997,3.9979,3.9985,3.9992,3.9997,4.0002,4.0008,4.0006,4.0006,4.0002,3.9975,3.9968,3.999,3.9989,3.9989,3.9989,3.9989,3.9979,3.9975,3.999,3.9997,4.0009,4.002,4.002,4.0031,4.0036,4.0041,4.0037,4.0017,4.0014,4.0012,4.0007,4.0037,4.0037,4.0037,4.0037,3.9992,3.9992,4.001,4.0021,4.0032,4.0034,4.0053,4.0058,4.0062,4.0065,4.006,4.0053,4.0051,4.0049,4.0046,4.0041,4.008,4.008,4.008,4.0007,4.0009,4.0025,4.0032,4.0042,4.0051,4.0069,4.0081,4.0084,4.0081,4.0067,4.0065,4.0054,4.005,4.0045,4.004,4.0031,0,0]}]]